www.pogodaiklimat.ru
ПОГОДА в Саффорде
Время
и дата
19:51 07.08
20:51 07.08
21:51 07.08
22:51 07.08
23:51 07.08
00:51 08.08
01:51 08.08
02:51 08.08
03:51 08.08
04:51 08.08
05:51 08.08
06:51 08.08
07:51 08.08
08:51 08.08
09:51 08.08
10:51 08.08
11:51 08.08
12:51 08.08
13:51 08.08
14:51 08.08
15:51 08.08
16:51 08.08
17:51 08.08
18:51 08.08
19:03 08.08
19:18 08.08
19:51 08.08
20:51 08.08
21:01 08.08
21:11 08.08
21:27 08.08
21:37 08.08
21:51 08.08
22:51 08.08
23:08 08.08
23:51 08.08
00:51 09.08
01:51 09.08
02:51 09.08
03:51 09.08
04:51 09.08
05:51 09.08
06:51 09.08
07:51 09.08
08:51 09.08
09:51 09.08
10:51 09.08
11:51 09.08
Ветер
(напр.,м/с)
Видим. Явления Облачность Т
(С)
Тd
(С)
f
(%)
Тe
(С)
Тes
(С)
Комфортность P
(гПа)
Po
(гПа)
Тmin
(С)
Tmax
(С)
R
(мм)
R24
(мм)
S
(см)
С 3 16 км ясно +25.0 +17.2 62 +29 +29 душно 1010.8 904.5
В 2 16 км 5/0 3600 м
[Ac]
+26.7 +16.7 54 +30 +30 душно 1012.0 906.0
нст 1 16 км 8/0 3600 м
[Ac]
+24.4 +18.3 69 +29 +29 душно 1013.8 907.2
СЗ 1 16 км 8/2 1950 м
[Ac]
+25.0 +18.3 66 +29 +29 душно 1013.0 906.9 +22.8 +35.0
ЮВ 1 16 км 2/0 3600 м
[Ac]
+24.4 +18.9 71 +29 +29 душно 1013.7 907.5
С 1 16 км ясно +23.3 +18.9 76 +30 +30 очень
душно
1012.8 906.9
Ю 1 16 км ясно +22.8 +18.3 76 +28 +28 душно 1012.4 906.6
штиль 0 16 км ясно +23.3 +18.9 76 +30 +30 очень
душно
1012.2 906.6
С 1 16 км ясно +21.7 +19.4 87 +27 +27 душно 1012.2 906.3
В 1 16 км ясно +21.7 +20.0 90 +27 +27 душно 1012.6 906.6 +21.1 +25.0
В 1 16 км 8/0 3300 м
[Ac]
+21.1 +20.0 93 +26 +26 душно 1014.5 907.2
штиль 0 16 км 2/0 3600 м
[Ac]
+23.9 +19.4 76 +29 +29 душно 1013.9 907.2
СЗ 1 16 км ясно +25.0 +18.3 66 +29 +31 душно 1014.5 907.5
нст 1 16 км ясно +26.7 +18.3 60 +31 +37 душно 1014.7 908.1
штиль 0 16 км ясно +27.8 +18.3 56 +33 +46 очень
душно
1014.6 907.8
штиль 0 16 км ясно +30.0 +17.8 48 +34 +54 опасность
солнечного
удара
1013.7 907.5 +21.1 +30.0
СЗ 1 16 км ясно +31.7 +17.2 42 +35 +51 опасность
солнечного
удара
1012.8 906.9
Ю 2 16 км ясно +32.8 +16.7 38 +36 +50 очень
душно
1011.9 906.0
ЮЗ 1 16 км ясно +33.3 +16.7 37 +36 +53 опасность
солнечного
удара
1011.1 905.1
штиль 0 16 км ясно +34.4 +15.6 33 +37 +60 опасность
солнечного
удара
1009.3 903.8
СЗ 1 16 км ясно +35.0 +15.6 31 +37 +48 очень
душно
1009.0 903.2
16 км ясно +33.9 +15.6 33 +36 +47 душно 1008.7 902.9 +30.0 +35.0
В 2 16 км ясно +32.8 +16.1 37 +36 +38 очень
душно
1008.4 902.6
В 2 16 км 2/0 3600 м
[Ac]
+31.7 +16.1 39 +35 +35 очень
душно
1009.6 903.8
ЮВ 1 16 км гроза 8/0 3300 м
[Ac]
+31.7 +16.1 39
ЮВ 2 16 км 10/2 1800 м
[Ac]
+31.1 +15.6 39 +34 +34 душно 904.5
ЮВ 3 16 км 8/0 2850 м
[Ac]
+30.0 +16.7 45 1010.5
Ю 4
{7}
16 км 8/0 2550 м
[Ac]
+25.6 +17.8 62 +30 +30 душно 1013.5 906.9
Ю 4
{6}
16 км гроза 8/0 2400 м
[Ac]
+24.4 +18.3 69
ЮВ 3
{5}
16 км гроза 8/0 2400 м
[Ac]
+23.9 +17.8 69
Ю 2
{4}
16 км гроза 8/0 2550 м
[Ac]
+24.4 +17.2 64 +28 +28 душно 907.8
нст 1 16 км 10/0 2550 м
[Ac]
+25.0 +16.7 60 +29 +29 душно 908.4
В 1 16 км 8/0 2700 м
[Ac]
+24.4 +16.7 62 1015.4
В 1 16 км гроза, слабый дождь 10/0 2850 м
[Ac]
+22.2 +18.3 79 +27 +27 душно 1015.8 909.0 +22.2 +33.9
СВ 1 16 км слабый дождь 8/0 2550 м
[Ac]
+22.2 +18.9 82 +28 +28 душно 909.0
штиль 0 16 км 8/0 3600 м
[Ac]
+23.3 +20.0 82 +30 +30 очень
душно
1015.0 908.4
З 1 16 км ясно +21.7 +20.6 93 +27 +27 душно 1014.3 907.8
штиль 0 16 км ясно +21.7 +20.0 90 +27 +27 душно 1013.7 907.5 0.5
СЗ 1 16 км ясно +21.1 +20.6 97 +26 +26 душно 1012.8 906.6
штиль 0 16 км ясно +21.1 +20.6 97 +26 +26 душно 1013.0 906.9
штиль 0 16 км 8/0 3600 м
[Ac]
+21.7 +20.6 93 +27 +27 душно 1013.2 906.9 +20.6 +23.3 0.5 0.5
ЮВ 1 16 км 5/0 3600 м
[Ac]
+20.6 +20.0 96 +26 +26 душно 1014.3 907.8
В 1 16 км 2/0 3600 м
[Ac]
+21.7 +20.0 90 +27 +27 душно 1014.7 908.1
В 2 16 км ясно +23.9 +20.0 79 +29 +31 душно 1014.8 908.4
ЮВ 1 16 км ясно +26.1 +20.0 69 +32 +36 очень
душно
1015.0 908.4
В 1 16 км ясно +27.8 +18.9 58 +33 +41 очень
душно
1014.8 908.1
нст 1 16 км ясно +28.9 +19.4 57 +35 +47 очень
душно
1014.6 907.8 +20.6 +29.4
нст 1 16 км ясно +30.0 +18.3 50 +35 +53 опасность
солнечного
удара
1013.7 907.2
Местоположение метеостанции Safford Municipal Airport: широта 32.8572 долгота -109.6356 высота над уровнем моря 968 м.
В архиве по умолчанию представлена погода в Саффорде за последние 1-2 суток. Обновление информации о фактической погоде в базе происходит ежечасно! Архивные данные за месяц целиком и за предыдущие месяцы Вы можете получить, выбрав интересующий диапазон дат из раскрывающегося списка и нажав кнопку "Ввод!".
Внимание! Архив погоды МЕТАР в базе сайта по станциям, не включенным в климатический монитор, хранится не более 60 дней. Нет смысла пытаться выбрать более раннюю дату.
*Определитесь, кто Вы:
Внимание! Время в таблицах - местное (без учета летнего времени). Для получения всемирного времени необходимо вычесть поправку, которая равна -7 ч.
Смотрите также архив погоды в соседних городах и на ближайших метеорологических станциях:
Партнеры нашего сайта:      
Пояснения к столбцам:
  • Ветер - указаны скорость ветра в м/с - средняя за 10 мин, порывы в срок и между сроками (в фигурных скобках) и направление, откуда дует ветер: С - северный,
  • СВ - северо-восточный, В - восточный, ЮВ - юго-восточный, Ю - южный, ЮЗ - юго-западный, З - западный, СЗ - северо-западный.
  • Видимость - горизонтальная дальность видимости в метрах или километрах. При видимости от 1 до 10 км при отсутствии осадков обычно наблюдается дымка, при ухудшении видимости до 1 км и менее - туман. В сухую погоду видимость может ухудшаться дымом, пылью или мглою.
  • Явления - указаны атмосферные явления, наблюдавшиеся в срок или в последний час перед сроком; фигурными скобками обозначены явления, наблюдавшиеся между сроками (за 1-3 часа до срока); квадратными скобками обозначены град или гололедные отложения с указанием их диаметра в мм.
  • Облачность - указаны через наклонную черту общая и нижняя облачность в баллах и высота нижней границы облаков в метрах; квадратными скобками обозначены формы облаков: Ci - перистые, Cs - перисто-слоистые, Cc - перисто-кучевые, Ac - высококучевые, As - высокослоистые, Sc - слоисто-кучевые, Ns - слоисто-дождевые, Cu - кучевые, Cb - кучево-дождевые. Подробнее классификацию облаков см. в Атласе облаков (PDF).
  • T - Температура воздуха - температура, измеренная на высоте 2 м над землей.
  • Td - Температура точки росы - температура, при понижении до которой содержащийся в воздухе водяной пар достигнет насыщения.
  • f - Относительная влажность воздуха - влажноcть воздуха, измеренная на высоте 2 м над землей.
  • Te - Эффективная температура - температура, которую ощущает одетый по сезону человек в тени. Характеристика душности погоды. При расчете учитывается влияние влажности воздуха и скорости ветра на теплоощущения человека.
  • Tes - Эффективная температура на солнце - температура, которую ощущает человек, с поправкой на солнечный нагрев. Характеристика знойности погоды. Зависит от высоты солнца над горизонтом, облачности и скорости ветра. Ночью, в пасмурную погоду, а также при ветре 12 м/с и более поправка равна нулю.
  • P - Атмосферное давление - приведенное к уровню моря атмосферное давление.
  • Po - Атмосферное давление - измеренное на уровне метеостанции атмосферное давление.
  • Tmin - Минимальная температура - минимум температуры воздуха на высоте 2 м над землей.
  • Tmax - Максимальная температура - максимум температуры воздуха на высоте 2 м над землей.
  • R - Количество осадков - Количество выпавших осадков за период времени, мм. При наведении курсора мыши на число - период времени, за который выпало указанное количество осадков.
  • R24 - Количество осадков - Количество выпавших осадков за 24 часа, мм.
  • S - Снежный покров - Высота снежного покрова, см. При наведении курсора мыши на число - состояние снежного покрова и степень покрытия местности в баллах.